Overview Statistics Trail Chart Weather Telemetry Raw packets
 

This is the latest recevied weather packets stored in our database for station/object K4WCH. If no packets are shown the sender has not sent any weather packets the latest 10 day(s).

<< 43 44 45 46 47 48 49 >>
Time Temp. Humidity Pressure Rain* Wind** Luminosity Snow
1788369335 31.67° C 70% 1015.6 hPa 0 mm - 993 W/m² -
1788369032 31.67° C 70% 1015.7 hPa 0 mm - 993 W/m² -
1788368732 31.67° C 70% 1015.7 hPa 0 mm - 993 W/m² -
1788368428 31.67° C 70% 1015.8 hPa 0 mm - 1045 W/m² -
1788368128 31.67° C 70% 1015.9 hPa 0 mm - 1045 W/m² -
1788367828 31.11° C 72% 1016 hPa 0 mm - 1033 W/m² -
1788367523 31.11° C 74% 1016 hPa 0 mm - 1182 W/m² -
1788367221 31.11° C 74% 1016.3 hPa 0 mm - 1182 W/m² -
1788366918 30.56° C 77% 1016.2 hPa 0 mm - 1117 W/m² -
1788366616 30.56° C 79% 1016.1 hPa 0 mm - 1095 W/m² -
1788366315 30.56° C 75% 1016.2 hPa 0 mm - 1276 W/m² -
1788366011 30° C 74% 1016.2 hPa 0 mm - 585 W/m² -
1788365705 30° C 78% 1016.2 hPa 0 mm - 826 W/m² -
1788365401 29.44° C 80% 1016.3 hPa 0 mm - 450 W/m² -
1788365097 28.89° C 81% 1016.2 hPa 0 mm - 545 W/m² -
1788364795 28.89° C 80% 1016.4 hPa 0 mm - 256 W/m² -
1788364490 29.44° C 79% 1016.4 hPa 0 mm - 166 W/m² -
1788364184 31.11° C 76% 1016.5 hPa 0 mm - 292 W/m² -
1788363880 31.67° C 70% 1016.4 hPa 0 mm - 308 W/m² -
1788363579 31.67° C 70% 1016.2 hPa 0 mm - 888 W/m² -
1788363278 31.67° C 68% 1016.3 hPa 0 mm - 593 W/m² -
1788362974 31.67° C 67% 1016.4 hPa 0 mm - 923 W/m² -
1788362669 31.11° C 71% 1016.7 hPa 0 mm - 838 W/m² -
1788362365 31.11° C 71% 1016.5 hPa 0 mm - 699 W/m² -
1788362061 31.67° C 73% 1016.4 hPa 0 mm - 888 W/m² -

* Rain latest hour (hover to see other rain measurements)
** Current wind speed in m/s (hover to see current wind gust speed)